Nome, AK

1:14 AM AKDT on May 30, 2017 (GMT -0800)
Nome

Weather History for PAOM - May, 2015

Change the Weather History Date:

Friday, May 8, 2015

  Actual Average Record
Temperature  
Mean Temperature 33 °F 33 °F  
Max Temperature 38 °F 39 °F 56 °F (1980)
Min Temperature 28 °F 27 °F 6 °F (1916)
Degree Days  
Heating Degree Days 32 32  
Month to date heating degree days 248 268  
Since 1 July heating degree days 11519 12578  
Cooling Degree Days 0 0  
Month to date cooling degree days 0 0  
Year to date cooling degree days 0 0  
Moisture  
Dew Point 32 °F    
Average Humidity 0    
Maximum Humidity 0    
Minimum Humidity 0    
Precipitation  
Precipitation 0.03 in 0.02 in 0.37 in (1943)
Month to date precipitation 0.04 0.22  
Year to date precipitation 2.99 3.50  
Snow  
Snow 0.00 in 0.10 in 0.60 in (1960)
Month to date snowfall 0.0 1.0  
Since 1 July snowfall 59.7 74.1  
Snow Depth T in    
Sea Level Pressure  
Sea Level Pressure 29.71 in    
Wind  
Wind Speed 13 mph (West)    
Max Wind Speed 24 mph    
Max Gust Speed 27 mph    
Visibility 8 miles    
Events Fog , Rain    
T = Trace of Precipitation, MM = Missing Value Source: NWS Daily Summary

Daily Weather History Graph

Daily Weather History Graph

Search for Another Location

Airport or City:

Trip Planner

Search our weather history database for the weather conditions in past years. The results will help you decide how hot, cold, wet, or windy it might be!

Date:

Astronomy

May. 08, 2015 Rise Set
Actual Time 6:06 AM AKDT 11:52 PM AKDT
Civil Twilight 4:42 AM AKDT 1:19 AM AKDT
Nautical Twilight Sun does not set Sun does not set
Astronomical Twilight Sun does not set Sun does not set
Moon 3:30 AM AKDT (5/8) 10:03 AM AKDT (5/8)
Length of Visible Light 20h 37m
Length of Day
17h 45m
Waning Gibbous, 78% of the Moon is Illuminated
May 8
Waning Gibbous
May 11
Last Quarter
May 17
New
May 25
First Quarter
Jun 2
Full

Hourly Weather History & Observations

Time (AKDT) Temp. Windchill Dew Point Humidity Pressure Visibility Wind Dir Wind Speed Gust Speed Precip Events Conditions
12:50 AM 35.6 °F 31.7 °F 35.6 °F 100% 29.63 in 10.0 mi ESE 4.6 mph - 0.00 in Rain Light Rain
12:53 AM 35.1 °F 31.0 °F 35.1 °F 100% 29.64 in 10.0 mi ESE 4.6 mph - 0.00 in Rain Light Rain
1:53 AM 34.0 °F 28.8 °F 34.0 °F 100% 29.64 in 10.0 mi East 5.8 mph - 0.01 in Rain Light Rain
2:53 AM 34.0 °F 29.8 °F 34.0 °F 100% 29.65 in 10.0 mi ESE 4.6 mph - 0.00 in Rain Light Rain
3:53 AM 33.1 °F - 33.1 °F 100% 29.65 in 10.0 mi Calm Calm - 0.01 in Rain Light Rain
4:01 AM 34.0 °F - 34.0 °F 100% 29.65 in 10.0 mi Calm Calm - 0.00 in Rain Light Rain
4:19 AM 34.0 °F - 34.0 °F 100% 29.65 in 10.0 mi Calm Calm - 0.00 in Rain Light Rain
4:27 AM 34.0 °F - 34.0 °F 100% 29.65 in 10.0 mi Calm Calm - 0.00 in Rain Light Rain
4:51 AM 33.8 °F 30.8 °F 33.8 °F 100% 29.65 in 9.0 mi West 3.5 mph - 0.01 in Rain Light Rain
4:53 AM 33.1 °F 30.0 °F 33.1 °F 100% 29.65 in 8.0 mi West 3.5 mph - 0.01 in Rain Light Rain
5:04 AM 33.1 °F 30.0 °F 33.1 °F 100% 29.65 in 1.8 mi WNW 3.5 mph - 0.00 in Rain Light Rain
5:14 AM 33.1 °F 30.0 °F 33.1 °F 100% 29.65 in 0.5 mi WNW 3.5 mph - 0.00 in Fog , Rain Light Rain
5:26 AM 33.1 °F - 33.1 °F 100% 29.66 in 0.8 mi Calm Calm - 0.00 in Rain Light Rain
5:44 AM 32.0 °F 26.4 °F 32.0 °F 100% 29.66 in 0.8 mi West 5.8 mph - 0.00 in   Mist
5:51 AM 32.0 °F 26.4 °F 32.0 °F 100% 29.66 in 1.5 mi West 5.8 mph - 0.00 in   Overcast
5:53 AM 32.0 °F 27.5 °F 32.0 °F 100% 29.67 in 2.0 mi West 4.6 mph - 0.00 in   Overcast
6:01 AM 32.0 °F 28.7 °F 32.0 °F 100% 29.66 in 8.0 mi WNW 3.5 mph - N/A   Overcast
6:53 AM 32.0 °F 28.7 °F 32.0 °F 100% 29.67 in 3.0 mi WSW 3.5 mph - N/A   Overcast
7:31 AM 33.1 °F 26.9 °F 33.1 °F 100% 29.67 in 10.0 mi West 6.9 mph - 0.00 in Rain Light Rain
7:53 AM 33.1 °F 25.5 °F 33.1 °F 100% 29.68 in 10.0 mi WNW 9.2 mph - 0.00 in   Overcast
8:51 AM 32.0 °F 22.5 °F 32.0 °F 100% 29.69 in 10.0 mi West 12.7 mph - 0.00 in Rain Light Rain
8:53 AM 32.0 °F 22.1 °F 32.0 °F 100% 29.69 in 10.0 mi West 13.8 mph - 0.00 in Rain Light Rain
9:53 AM 33.1 °F 23.9 °F 32.0 °F 96% 29.70 in 10.0 mi WNW 12.7 mph - 0.00 in   Overcast
10:53 AM 35.1 °F 25.2 °F 33.1 °F 92% 29.71 in 10.0 mi West 16.1 mph - N/A   Overcast
11:53 AM 35.1 °F 24.8 °F 32.0 °F 89% 29.72 in 10.0 mi WNW 17.3 mph - N/A   Overcast
12:53 PM 36.0 °F 26.7 °F 32.0 °F 86% 29.73 in 10.0 mi WNW 15.0 mph - N/A   Mostly Cloudy
1:53 PM 37.0 °F 27.4 °F 32.0 °F 82% 29.75 in 10.0 mi WNW 17.3 mph - N/A   Mostly Cloudy
2:53 PM 37.0 °F 27.4 °F 30.9 °F 79% 29.76 in 10.0 mi WNW 17.3 mph - N/A   Scattered Clouds
3:53 PM 37.0 °F 26.7 °F 30.0 °F 76% 29.77 in 10.0 mi WNW 19.6 mph - N/A   Partly Cloudy
4:53 PM 37.0 °F 27.4 °F 30.0 °F 76% 29.78 in 10.0 mi WNW 17.3 mph - N/A   Scattered Clouds
5:53 PM 36.0 °F 25.3 °F 28.9 °F 76% 29.80 in 10.0 mi WNW 19.6 mph 24.2 mph N/A   Scattered Clouds
6:53 PM 33.1 °F 21.2 °F 27.0 °F 78% 29.82 in 10.0 mi West 20.7 mph - N/A   Scattered Clouds
7:53 PM 33.1 °F 21.9 °F 27.0 °F 78% 29.82 in 10.0 mi West 18.4 mph - N/A   Scattered Clouds
8:53 PM 32.0 °F 20.8 °F 27.0 °F 82% 29.83 in 10.0 mi West 17.3 mph - N/A   Scattered Clouds
9:53 PM 30.9 °F 19.4 °F 27.0 °F 85% 29.85 in 10.0 mi West 17.3 mph - N/A   Scattered Clouds
10:53 PM 30.0 °F 20.0 °F 28.0 °F 92% 29.87 in 10.0 mi West 12.7 mph - N/A   Scattered Clouds
11:53 PM 28.9 °F 18.6 °F 28.0 °F 96% 29.87 in 10.0 mi West 12.7 mph - N/A   Mostly Cloudy